Theta_e
348 349 351 351 354 353 351 350 347 348 347 346 344 342 341 342 340 338 337 335 334 334 333 331 332 333 331 332 332 329 328 326 321 324 328 330 329 329 332 330 332 328 325
349 349 351 346 346 349 346 346 345 344 343 341 341 339 338 338 336 336 334 333 332 331 332 330 328 332 330 329 330 327 328 328 324 321 323 323 325 327 329 328 329 328 327
346 343 342 342 344 345 344 344 344 342 342 339 339 337 336 336 334 334 334 333 333 332 331 329 326 327 326 326 328 327 328 329 327 321 318 321 321 323 322 324 324 325 325
341 340 340 342 343 343 343 342 342 339 339 339 338 335 333 333 334 334 333 333 333 333 330 326 325 325 326 326 328 329 327 326 324 319 318 318 318 320 320 318 316 320 319
337 337 340 342 342 341 340 340 339 340 338 336 336 333 333 330 329 334 335 332 332 328 328 326 324 324 322 321 326 329 326 326 320 317 316 316 315 316 315 316 313 314 315
335 337 340 339 338 338 338 338 339 337 338 333 334 333 327 324 305 310 323 333 333 329 326 324 326 322 321 314 317 317 325 324 319 317 316 314 315 315 315 314 313 312 308
336 336 335 335 334 335 336 336 336 334 337 335 334 333 330 322 304 308 312 334 332 329 326 323 325 328 324 325 313 314 315 315 319 321 317 317 315 316 316 315 315 314 311
333 332 332 332 333 334 334 333 336 336 337 335 334 333 330 320 307 307 308 334 331 329 326 325 325 327 327 327 327 326 326 324 323 324 321 319 319 319 320 319 317 313 314
330 330 331 333 333 332 332 334 336 335 334 334 335 333 331 324 304 305 316 332 330 327 326 324 324 326 308 307 327 325 322 318 310 311 309 306 304 307 312 317 313 312 309
329 330 333 334 333 332 334 336 336 335 335 335 334 333 320 324 303 303 315 329 327 326 325 321 308 317 302 304 327 325 319 318 318 317 314 308 310 309 308 318 316 312 311
330 331 334 334 335 335 336 336 334 334 334 333 331 330 330 327 314 304 304 330 327 324 321 318 316 299 303 303 314 324 319 320 314 320 318 317 317 318 318 318 318 316 313
330 333 333 334 331 334 335 335 335 334 332 331 328 327 330 327 311 303 303 308 318 324 322 319 310 297 300 303 311 301 304 313 321 318 317 315 316 317 317 319 318 318 320
333 333 333 334 333 334 334 334 332 332 331 329 325 324 325 326 320 301 301 305 307 322 320 307 296 297 299 303 300 302 308 320 318 316 314 315 317 319 317 317 318 319 322
333 331 334 334 331 333 333 333 334 332 331 330 329 325 324 326 325 323 318 314 304 305 304 306 304 304 305 307 309 313 323 320 318 317 316 317 318 318 315 317 314 320 320
333 331 331 329 331 326 321 319 332 320 325 331 332 327 325 324 323 318 320 323 319 309 312 315 314 313 315 318 317 320 320 321 318 318 317 316 317 317 316 316 315 317 319
330 331 328 329 329 328 328 321 296 297 296 300 301 318 314 308 299 300 300 300 300 299 316 314 313 313 313 316 317 319 319 317 319 320 319 318 316 316 315 316 317 317 318
329 329 330 325 329 328 329 327 321 310 297 295 295 302 305 299 296 296 297 298 297 301 318 315 314 314 315 317 318 318 318 320 321 319 319 320 319 319 314 317 317 318 320
330 315 328 331 328 330 327 327 326 323 322 319 299 300 295 294 294 295 296 302 315 315 320 317 316 316 317 317 318 319 320 320 320 321 320 321 320 320 319 320 320 320 319
328 330 331 331 329 327 330 328 327 327 326 320 315 304 296 293 294 295 297 320 320 322 322 320 318 318 319 319 320 320 321 321 321 323 323 322 323 322 321 321 320 304 309
331 314 314 327 328 330 329 327 329 328 327 323 322 316 309 310 313 315 320 321 322 322 322 323 321 321 320 321 322 321 322 319 322 325 324 323 324 323 321 321 321 320 317
328 326 308 325 326 329 329 327 330 329 327 325 324 317 302 321 319 321 323 323 323 323 324 326 325 325 323 324 325 324 325 324 325 325 325 325 325 323 322 323 323 323 321
325 326 327 325 325 329 328 328 329 329 328 327 323 313 296 320 324 324 326 326 328 328 328 327 327 326 327 326 326 326 325 325 326 326 326 326 326 324 324 325 325 323 321
325 325 327 323 327 312 325 327 328 326 328 326 323 321 319 323 325 325 325 326 327 327 329 328 327 327 329 329 328 327 326 326 327 327 326 326 326 326 326 325 325 324 321
325 325 326 323 325 325 326 325 327 317 326 325 325 324 325 327 329 329 327 327 327 323 320 320 309 307 307 307 306 305 301 299 311 327 328 326 325 319 325 325 323 322 321
328 327 328 324 325 324 323 326 325 328 325 326 328 328 325 321 321 319 316 315 313 308 305 306 306 302 299 296 296 295 289 286 297 293 320 326 327 327 326 325 325 325 325
324 327 325 321 321 319 315 315 318 320 318 316 318 318 316 316 314 313 312 310 310 305 301 298 298 297 296 293 291 287 288 289 296 289 314 327 326 324 322 323 324 324 324
Wind_Speed
11 12 12 11 9 11 9 7 10 11 12 11 9 7 7 6 5 6 4 7 7 5 3 3 5 1 2 3 3 3 2 4 6 3 4 5 4 5 6 8 8 7 9
12 12 11 11 10 10 9 10 9 9 8 7 11 9 8 7 7 6 5 6 7 6 5 5 2 2 4 3 4 5 2 5 7 8 3 3 5 5 6 8 6 6 8
12 11 11 10 10 10 10 9 8 7 6 7 11 9 9 8 7 5 5 6 6 5 6 6 4 2 2 2 5 4 4 4 7 7 4 2 3 2 7 7 7 8 5
15 11 11 12 11 10 10 9 8 7 6 5 5 5 5 7 7 5 5 5 5 4 6 5 4 2 4 4 6 6 5 6 8 8 5 3 3 3 5 6 7 6 7
14 12 12 11 11 10 9 7 6 6 6 7 6 6 7 6 4 4 4 6 7 6 5 4 4 3 4 2 1 5 8 7 8 7 5 4 4 3 6 4 8 8 6
13 13 13 12 10 9 8 7 6 7 6 7 8 6 9 6 7 9 1 5 8 7 5 3 2 4 5 1 3 3 9 11 11 7 4 8 5 7 7 8 9 8 4
13 13 12 11 11 9 8 7 4 5 8 6 6 6 9 7 7 7 5 4 5 6 5 4 3 4 5 6 5 6 11 11 11 9 9 8 9 8 9 9 9 6 5
12 12 12 12 11 9 8 5 4 5 6 6 5 9 9 6 7 6 3 4 6 6 5 4 3 4 3 5 7 8 9 9 9 7 8 8 9 9 9 10 10 9 8
13 12 14 13 13 10 9 7 6 7 6 5 6 8 9 7 6 5 0 5 6 6 4 4 2 2 5 4 8 12 10 7 9 15 13 13 13 11 10 11 10 11 5
13 12 14 14 14 11 9 7 7 6 6 5 6 8 11 7 6 7 4 5 6 5 5 4 3 4 6 3 10 11 11 8 12 10 9 10 9 10 9 7 10 11 7
12 10 15 14 11 9 7 7 7 6 6 7 9 5 7 8 6 7 6 4 5 5 4 3 2 5 6 7 11 10 12 11 10 10 9 8 8 6 5 5 6 8 9
11 16 13 10 9 8 10 7 7 8 9 8 8 3 7 7 7 7 8 8 9 6 6 4 4 6 8 13 10 16 17 12 8 8 8 7 8 6 5 4 5 4 2
15 13 11 9 8 7 9 7 7 6 7 8 8 5 5 7 5 7 8 9 11 7 6 7 10 7 11 12 15 16 11 8 7 7 7 6 6 6 6 4 4 5 6
14 12 10 8 9 7 6 6 5 5 5 4 5 8 5 5 6 6 6 7 11 9 10 6 8 8 8 9 7 4 6 8 8 7 7 7 6 7 5 6 3 3 3
13 11 9 7 8 8 9 5 5 6 1 4 3 6 9 5 4 7 8 6 6 7 9 6 5 4 6 5 4 3 6 7 8 7 7 8 7 5 6 6 3 3 3
11 10 8 7 8 8 8 8 16 10 9 10 4 7 3 12 13 14 15 17 15 12 6 6 5 5 5 6 4 5 6 5 5 7 8 8 8 8 7 6 3 4 3
12 10 9 7 8 7 8 9 8 6 14 16 12 10 13 12 14 15 15 15 11 5 6 5 5 5 5 5 5 5 5 6 7 6 6 6 7 7 7 6 6 6 5
12 13 9 9 9 8 6 7 8 8 7 6 13 9 12 13 14 15 13 10 3 2 7 6 6 6 6 6 5 5 5 5 6 6 6 8 8 7 7 7 7 7 5
13 9 10 9 11 11 9 8 8 7 8 9 7 7 9 12 11 10 9 5 4 4 6 8 7 6 6 6 7 4 8 7 6 6 8 7 7 7 7 6 6 9 9
10 9 5 9 12 8 8 6 8 8 8 8 8 8 4 5 4 4 4 5 4 2 3 8 8 8 8 7 7 8 6 7 7 6 6 7 7 6 7 7 8 9 6
7 6 6 2 9 10 9 7 6 9 8 8 10 10 10 8 8 7 6 6 5 4 4 4 6 7 8 8 7 6 5 5 5 7 7 6 7 8 8 9 9 9 6
7 6 5 6 8 12 8 9 7 7 7 9 11 10 13 5 8 7 7 7 6 7 7 7 6 7 7 6 7 7 7 7 6 5 5 5 6 6 8 9 10 7 7
10 7 4 4 7 10 12 9 8 7 11 11 11 10 9 7 6 7 6 6 5 5 4 6 5 6 7 7 8 7 8 8 8 7 6 7 6 7 7 7 8 8 4
4 9 6 3 7 8 7 7 13 11 13 12 12 10 9 8 5 5 8 6 6 10 11 11 11 15 12 10 9 9 9 8 6 3 9 7 6 7 8 6 5 6 7
3 7 5 10 9 10 11 10 10 10 10 10 9 7 13 13 15 12 13 13 12 14 16 13 12 16 18 20 16 15 12 9 9 6 4 4 3 6 6 5 5 7 8
12 10 14 10 11 11 13 12 12 14 14 12 13 13 13 13 13 14 13 14 13 14 15 12 15 19 18 14 16 12 10 11 11 6 5 8 8 9 10 9 11 9 10
Wind_Direction
162 172 167 173 153 134 146 122 120 138 145 161 154 127 139 157 151 194 247 167 151 139 121 170 184 190 220 231 177 211 202 154 126 55 64 60 85 119 93 109 120 117 138
161 166 159 123 128 135 125 117 123 126 142 155 137 156 181 176 173 158 210 152 146 151 169 173 149 188 230 226 230 196 181 137 125 125 80 63 61 46 70 87 95 110 136
145 118 124 123 129 129 127 127 140 141 166 168 162 170 193 157 147 178 214 163 148 167 168 141 146 86 234 206 239 207 188 127 131 121 105 66 76 67 78 74 84 90 107
125 128 132 135 137 140 135 143 149 155 158 126 134 166 172 123 142 157 165 142 156 151 116 128 167 221 289 200 210 190 155 131 108 112 113 98 84 76 92 107 86 90 96
128 135 140 139 142 141 139 140 138 142 149 161 125 95 98 83 82 147 141 135 129 119 126 153 192 219 293 85 307 202 138 125 124 126 131 112 121 116 119 112 106 104 69
140 143 142 144 141 133 138 151 148 152 169 118 115 118 92 92 65 61 125 151 145 152 143 180 227 214 241 222 165 345 153 140 136 143 140 142 134 119 126 129 127 127 112
152 141 141 145 144 141 128 139 160 146 110 112 112 124 105 108 112 93 48 128 141 123 145 171 201 240 221 148 118 99 112 113 134 147 146 146 137 141 135 135 138 121 108
139 149 158 147 131 138 147 153 156 121 113 120 125 117 105 88 94 100 58 115 125 137 140 151 174 262 200 161 140 132 118 128 126 130 128 126 127 141 142 140 120 101 98
157 161 154 148 144 147 163 172 126 122 136 154 126 117 112 103 105 86 324 123 128 124 132 131 192 252 87 44 150 111 97 74 85 110 117 114 120 123 123 122 129 130 123
159 169 156 139 147 158 160 133 123 149 148 111 115 97 101 120 95 64 19 118 131 128 117 109 31 18 82 60 127 123 114 119 115 110 102 98 116 127 142 131 144 146 137
161 149 110 127 138 139 139 133 146 156 126 114 112 116 127 125 88 66 36 159 138 128 133 113 80 93 93 101 123 127 129 132 120 125 121 114 121 115 110 109 137 151 155
154 115 116 134 139 144 133 160 148 133 132 120 110 115 114 95 98 67 52 66 130 145 134 121 105 101 99 90 96 122 121 122 123 123 126 130 131 119 129 122 123 154 206
110 114 131 134 118 142 147 142 127 145 145 147 150 149 143 127 104 82 59 64 57 91 107 111 113 107 91 100 127 125 127 119 122 124 129 133 140 124 118 105 133 177 235
125 125 129 121 138 151 148 144 140 154 174 187 162 144 134 142 140 131 124 100 81 86 102 99 102 82 85 112 122 139 124 130 133 130 132 134 131 139 152 164 172 180 177
137 126 125 134 116 88 66 12 114 43 313 183 159 150 143 155 152 159 141 128 120 118 120 115 105 95 120 131 134 82 118 130 137 140 137 143 155 149 167 186 173 205 196
132 126 140 134 134 126 116 86 45 57 48 56 100 118 60 120 121 104 109 112 130 156 116 115 113 121 130 133 141 131 138 136 133 143 153 154 161 167 168 180 189 233 227
140 138 160 176 156 160 143 137 118 68 65 53 51 94 96 123 110 116 124 131 154 164 117 120 129 136 137 136 134 130 131 137 147 152 161 161 163 164 162 180 194 217 241
154 153 169 192 155 160 142 132 140 151 141 102 41 66 87 109 114 122 127 122 141 221 131 137 139 139 141 142 141 148 149 154 166 169 169 174 176 174 184 188 195 210 216
156 177 186 194 148 151 144 146 151 145 130 120 118 72 66 77 104 131 155 142 163 164 147 141 152 146 143 158 170 185 163 177 187 190 181 186 180 184 187 197 209 223 217
175 180 53 125 135 148 134 141 140 142 143 143 141 127 119 118 126 171 183 173 172 193 157 149 162 167 169 176 176 179 192 179 196 200 188 184 189 183 193 216 225 228 207
172 125 122 233 151 147 143 148 150 154 152 146 133 140 163 146 165 178 175 189 179 188 190 165 166 170 176 185 174 187 174 190 189 198 197 191 187 194 206 222 235 239 213
147 158 166 227 149 147 149 160 149 150 150 139 120 151 180 183 171 185 181 185 185 181 175 186 168 176 203 167 171 179 182 193 191 188 189 200 195 205 224 224 239 245 214
146 176 183 343 149 126 161 163 152 164 132 128 137 151 181 209 172 178 195 166 198 168 190 179 200 173 176 165 178 187 187 188 192 200 216 222 211 213 223 229 239 248 235
153 171 147 214 159 163 146 158 146 147 136 139 145 155 182 201 196 196 175 193 70 42 48 50 53 50 50 47 34 34 22 357 326 273 206 205 216 205 221 238 232 247 249
348 173 105 86 48 76 63 61 73 137 128 131 139 86 71 76 75 72 72 70 68 73 61 55 58 55 50 44 39 27 1 347 19 346 357 346 296 271 275 278 266 273 273
38 63 79 61 78 76 71 66 67 76 78 69 70 75 73 69 70 67 77 65 69 71 65 58 59 62 60 48 35 13 11 25 35 28 359 12 6 4 358 351 340 333 324